This is the latest recevied weather packets stored in our database for station/object IU7URP-17. If no packets are shown the sender has not sent any weather packets the latest 10 day(s).
| Time | Temp. | Humidity | Pressure | Rain* | Wind** | Luminosity | Snow |
|---|---|---|---|---|---|---|---|
| 1788529645 | 32.78° C | 23% | 1016.9 hPa | - | - | - | - |
| 1788528441 | 32.78° C | 24% | 1017.3 hPa | - | - | - | - |
| 1788527237 | 33.89° C | 22% | 1017.5 hPa | - | - | - | - |
| 1788526033 | 33.89° C | 25% | 1017.5 hPa | - | - | - | - |
| 1788524829 | 33.89° C | 25% | 1017.5 hPa | - | - | - | - |
| 1788523624 | 33.89° C | 26% | 1017.6 hPa | - | - | - | - |
| 1788519691 | 34.44° C | 28% | 1017.9 hPa | - | - | - | - |
| 1788518487 | 33.89° C | 31% | 1018 hPa | - | - | - | - |
| 1788517283 | 33.89° C | 31% | 1018 hPa | - | - | - | - |
| 1788516079 | 33.33° C | 35% | 1018.2 hPa | - | - | - | - |
| 1788514875 | 32.78° C | 36% | 1018.3 hPa | - | - | - | - |
| 1788513671 | 32.22° C | 37% | 1018.3 hPa | - | - | - | - |
| 1788512467 | 32.22° C | 41% | 1018.5 hPa | - | - | - | - |
| 1788511263 | 31.11° C | 41% | 1018.4 hPa | - | - | - | - |
| 1788510075 | 32.22° C | 45% | 1018.4 hPa | - | - | - | - |
| 1788508854 | 31.11° C | 49% | 1018.4 hPa | - | - | - | - |
| 1788507650 | 31.11° C | 52% | 1018.2 hPa | - | - | - | - |
| 1788506445 | 30° C | 57% | 1018.2 hPa | - | - | - | - |
| 1788505241 | 28.89° C | 63% | 1018 hPa | - | - | - | - |
| 1788498017 | 24.44° C | 85% | 1018 hPa | - | - | - | - |
| 1788496812 | 23.33° C | 87% | 1017.9 hPa | - | - | - | - |
| 1788495608 | 23.33° C | 87% | 1017.9 hPa | - | - | - | - |
| 1788494404 | 23.33° C | 87% | 1017.8 hPa | - | - | - | - |
| 1788493201 | 23.33° C | 86% | 1017.8 hPa | - | - | - | - |
| 1788490792 | 23.33° C | 84% | 1017.6 hPa | - | - | - | - |
* Rain since midnight (hover to see other rain measurements)
** Current wind speed in m/s (hover to see current wind gust speed)